Newberry, MI

4:05 AM EST on January 23, 2018 (GMT -0500)
Luce County

Weather History for KERY - August, 2014

Change the Weather History Date:

Saturday, August 30, 2014

  Actual Average Record
Temperature  
Mean Temperature 64 °F -  
Max Temperature 68 °F 73 °F 92 °F (1991)
Min Temperature 60 °F 50 °F 33 °F (1976)
Degree Days  
Heating Degree Days 1    
Growing Degree Days 14 (Base 50)    
Moisture  
Dew Point 66 °F    
Average Humidity 98    
Maximum Humidity 100    
Minimum Humidity 94    
Precipitation  
Precipitation 1.13 in - - ()
Sea Level Pressure  
Sea Level Pressure 29.77 in    
Wind  
Wind Speed 9 mph (SW)    
Max Wind Speed 14 mph    
Max Gust Speed 22 mph    
Visibility 4 miles    
Events Fog , Rain    
Averages and records for this station are not official NWS values.
T = Trace of Precipitation, MM = Missing Value Source: NWS Daily Summary

Daily Weather History Graph

Daily Weather History Graph

Search for Another Location

Airport or City:

Trip Planner

Search our weather history database for the weather conditions in past years. The results will help you decide how hot, cold, wet, or windy it might be!

Date:

Astronomy

Aug. 30, 2014 Rise Set
Actual Time 6:59 AM EDT 8:24 PM EDT
Civil Twilight 6:28 AM EDT 8:55 PM EDT
Nautical Twilight 5:50 AM EDT 9:33 PM EDT
Astronomical Twilight 5:09 AM EDT 10:13 PM EDT
Moon 12:04 PM EDT (8/30) 10:38 PM EDT (8/30)
Length of Visible Light 14h 27m
Length of Day
13h 24m
Waxing Crescent, 23% of the Moon is Illuminated
Aug 30
Waxing Crescent
Sep 2
First Quarter
Sep 8
Full
Sep 15
Last Quarter
Sep 24
New

Hourly Weather History & Observations

Time (EDT) Temp. Dew Point Humidity Pressure Visibility Wind Dir Wind Speed Gust Speed Precip Events Conditions
12:14 AM 65.5 °F 64.9 °F 98% 29.85 in 7.0 mi SSW 12.7 mph 18.4 mph N/A   Overcast
12:34 AM 65.8 °F 64.9 °F 97% 29.85 in 7.0 mi South 11.5 mph 17.3 mph N/A   Overcast
12:54 AM 66.0 °F 64.9 °F 96% 29.85 in 7.0 mi SSW 6.9 mph 18.4 mph N/A   Overcast
1:14 AM 65.7 °F 65.3 °F 99% 29.86 in 3.0 mi SW 5.8 mph - 0.06 in Rain Heavy Rain
1:34 AM 65.7 °F 65.3 °F 99% 29.86 in 2.0 mi SSW 6.9 mph - 0.20 in Rain Rain
1:54 AM 65.3 °F 64.4 °F 97% 29.83 in 5.0 mi SSW 6.9 mph - 0.23 in Rain Light Rain
2:14 AM 64.9 °F 64.6 °F 99% 29.84 in 3.0 mi SW 8.1 mph - 0.07 in Rain Light Rain
2:34 AM 64.9 °F 64.6 °F 99% 29.84 in 2.5 mi South 6.9 mph - 0.25 in Rain Heavy Rain
2:54 AM 65.3 °F 65.3 °F 100% 29.83 in 3.0 mi South 6.9 mph - 0.28 in   Overcast
3:14 AM 66.2 °F 66.2 °F 100% 29.82 in 4.0 mi SSW 8.1 mph - 0.01 in   Overcast
3:34 AM 67.3 °F 67.1 °F 99% 29.82 in 4.0 mi SSW 9.2 mph 16.1 mph 0.01 in   Overcast
3:54 AM 67.6 °F 67.1 °F 98% 29.81 in 1.8 mi South 11.5 mph - 0.15 in Rain Rain
4:14 AM 68.0 °F 67.3 °F 98% 29.81 in 3.0 mi SSW 13.8 mph 21.9 mph 0.03 in   Overcast
4:35 AM 68.4 °F 67.6 °F 98% 29.80 in 4.0 mi SW 8.1 mph - 0.05 in   Overcast
4:54 AM 68.2 °F 67.5 °F 98% 29.80 in 3.0 mi SSW 5.8 mph - 0.05 in   Overcast
5:14 AM 68.0 °F 67.3 °F 98% 29.81 in 3.0 mi SW 9.2 mph - N/A   Overcast
5:35 AM 68.0 °F 67.1 °F 97% 29.79 in 4.0 mi SW 9.2 mph - N/A   Overcast
5:54 AM 67.6 °F 67.1 °F 98% 29.80 in 4.0 mi SSW 8.1 mph - N/A   Overcast
6:14 AM 67.5 °F 66.9 °F 98% 29.81 in 3.0 mi SSW 10.4 mph 18.4 mph 0.04 in Rain Heavy Rain
6:34 AM 67.1 °F 66.6 °F 98% 29.80 in 2.5 mi SW 6.9 mph - 0.17 in Rain Heavy Rain
6:54 AM 66.9 °F 66.6 °F 99% 29.80 in 3.0 mi SSW 5.8 mph - 0.19 in Rain Light Rain
7:14 AM 66.7 °F 66.4 °F 99% 29.80 in 4.0 mi SSW 3.5 mph - N/A   Overcast
7:34 AM 66.6 °F 66.2 °F 99% 29.79 in 2.5 mi SW 6.9 mph - N/A   Overcast
7:54 AM 66.6 °F 66.4 °F 99% 29.79 in 1.8 mi SW 6.9 mph - N/A   Overcast
8:14 AM 66.6 °F 66.4 °F 99% 29.78 in 1.5 mi South 8.1 mph - N/A   Overcast
8:34 AM 66.6 °F 66.4 °F 99% 29.77 in 0.8 mi South 8.1 mph - N/A   Overcast
8:54 AM 66.7 °F 66.6 °F 99% 29.78 in 1.0 mi South 6.9 mph - N/A   Overcast
9:15 AM 66.7 °F 66.6 °F 99% 29.78 in 0.5 mi SSW 6.9 mph - N/A Rain Light Rain
9:34 AM 66.7 °F 66.6 °F 99% 29.77 in 0.8 mi Calm Calm - N/A Rain Light Rain
9:54 AM 67.1 °F 66.9 °F 99% 29.77 in 1.0 mi SW 5.8 mph - 0.01 in   Overcast
10:15 AM 67.5 °F 67.1 °F 99% 29.76 in 3.0 mi SW 6.9 mph - N/A   Overcast
10:54 AM 66.4 °F 65.8 °F 98% 29.76 in 4.0 mi SSW 8.1 mph - 0.22 in Rain Light Rain
11:14 AM 67.1 °F 66.2 °F 97% 29.76 in 7.0 mi SSW 8.1 mph - N/A   Overcast
11:34 AM 67.1 °F 66.6 °F 98% 29.76 in 3.0 mi SSW 3.5 mph - N/A   Overcast
11:54 AM 67.1 °F 66.4 °F 98% 29.76 in 5.0 mi SSW 6.9 mph - N/A   Overcast
12:14 PM 67.3 °F 66.6 °F 98% 29.75 in 5.0 mi SW 8.1 mph - N/A   Overcast
12:34 PM 67.3 °F 66.7 °F 98% 29.75 in 4.0 mi SSW 6.9 mph - N/A   Overcast
12:54 PM 67.1 °F 66.6 °F 98% 29.75 in 1.5 mi SSW 8.1 mph - N/A   Overcast
1:14 PM 67.1 °F 66.9 °F 99% 29.74 in 1.5 mi SSW 8.1 mph - N/A   Overcast
1:34 PM 67.5 °F 67.1 °F 99% 29.74 in 1.5 mi SSW 10.4 mph 21.9 mph N/A   Overcast
1:54 PM 68.2 °F 67.8 °F 99% 29.74 in 2.0 mi SSW 8.1 mph - N/A   Overcast
2:14 PM 68.0 °F 67.6 °F 99% 29.74 in 1.5 mi SSW 9.2 mph - N/A   Overcast
2:34 PM 68.5 °F 67.6 °F 97% 29.74 in 2.5 mi SSW 9.2 mph - N/A   Overcast
2:55 PM 68.2 °F 67.3 °F 97% 29.74 in 2.5 mi SSW 11.5 mph 20.7 mph N/A   Overcast
3:14 PM 68.2 °F 67.1 °F 96% 29.74 in 3.0 mi SSW 8.1 mph 16.1 mph N/A   Overcast
3:54 PM 68.5 °F 67.1 °F 95% 29.74 in 3.0 mi SSW 11.5 mph 19.6 mph N/A   Overcast
4:14 PM 68.2 °F 66.9 °F 96% 29.73 in 4.0 mi SW 10.4 mph 21.9 mph N/A   Overcast
4:35 PM 68.7 °F 67.1 °F 95% 29.73 in 4.0 mi SW 12.7 mph 18.4 mph N/A   Overcast
4:54 PM 68.0 °F 67.1 °F 97% 29.73 in 2.5 mi SW 9.2 mph - N/A   Overcast
5:14 PM 68.0 °F 67.1 °F 97% 29.73 in 3.0 mi SW 8.1 mph - N/A   Overcast
5:34 PM 68.0 °F 67.1 °F 97% 29.73 in 4.0 mi SW 8.1 mph - N/A   Overcast
5:54 PM 68.0 °F 66.9 °F 96% 29.73 in 5.0 mi SW 9.2 mph - N/A   Overcast
6:14 PM 68.4 °F 67.1 °F 96% 29.72 in 7.0 mi SSW 4.6 mph - N/A   Overcast
6:34 PM 68.9 °F 67.1 °F 94% 29.72 in 10.0 mi WSW 4.6 mph - N/A   Overcast
6:54 PM 68.5 °F 66.7 °F 94% 29.72 in 7.0 mi West 4.6 mph - N/A   Overcast
7:14 PM 66.2 °F 64.6 °F 94% 29.72 in 7.0 mi NW 11.5 mph 21.9 mph N/A   Overcast
7:34 PM 63.7 °F 62.8 °F 97% 29.73 in 10.0 mi NW 13.8 mph - N/A   Overcast
7:54 PM 62.6 °F 62.2 °F 99% 29.73 in 7.0 mi NW 10.4 mph 17.3 mph N/A   Overcast
8:14 PM 62.1 °F 61.9 °F 99% 29.74 in 0.8 mi WNW 10.4 mph - N/A   Overcast
8:34 PM 62.1 °F 61.9 °F 99% 29.74 in 0.5 mi NW 9.2 mph - N/A Fog Fog
8:54 PM 61.9 °F 61.9 °F 100% 29.75 in 0.5 mi WNW 9.2 mph - N/A Fog Fog
9:34 PM 61.9 °F 61.9 °F 100% 29.76 in 2.0 mi WNW 8.1 mph - N/A   Overcast
9:55 PM 61.7 °F 61.7 °F 100% 29.76 in 7.0 mi WNW 8.1 mph - N/A   Overcast
10:14 PM 61.3 °F 61.2 °F 99% 29.77 in 10.0 mi NW 8.1 mph - N/A   Overcast
10:34 PM 61.2 °F 60.8 °F 99% 29.77 in 10.0 mi NW 6.9 mph - N/A   Overcast
10:54 PM 61.0 °F 60.8 °F 99% 29.78 in 10.0 mi WNW 8.1 mph - N/A   Overcast
11:14 PM 60.8 °F 60.4 °F 99% 29.78 in 10.0 mi WNW 8.1 mph - N/A   Overcast
11:34 PM 60.8 °F 60.4 °F 99% 29.79 in 10.0 mi WNW 8.1 mph - N/A   Overcast
11:54 PM 60.6 °F 60.1 °F 98% 29.80 in 10.0 mi WNW 8.1 mph - N/A   Overcast